| time (UTC) | temp F | wind direction | speed knots | gust knots | rain 1hr in | rain 24hr in | rain mn in | humidity % | barometer mb |
| 20260506214608 | 68 | 332 | 0.9 | 5.2 | 0.00 | 0.02 | 0.02 | 74 | 1012.2 |
| 20260506213055 | 68 | 315 | 1.7 | 2.6 | 0.00 | 0.02 | 0.02 | 73 | 1012.1 |
| 20260506211553 | 69 | 316 | 2.6 | 6.1 | 0.00 | 0.02 | 0.02 | 73 | 1012.0 |
| 20260506210111 | 71 | 338 | 0.9 | 3.5 | 0.00 | 0.02 | 0.02 | 73 | 1012.3 |
| 20260506204554 | 72 | 326 | 1.7 | 7.0 | 0.00 | 0.02 | 0.02 | 72 | 1012.6 |
| 20260506203100 | 72 | 316 | 1.7 | 3.5 | 0.00 | 0.02 | 0.02 | 72 | 1012.3 |
| 20260506201553 | 72 | 347 | 0.9 | 3.5 | 0.00 | 0.02 | 0.02 | 74 | 1012.3 |
| 20260506200137 | 73 | 293 | 0.9 | 5.2 | 0.00 | 0.02 | 0.02 | 73 | 1011.8 |
| 20260506194600 | 75 | 290 | 0.0 | 3.5 | 0.00 | 0.02 | 0.02 | 73 | 1011.6 |
| 20260506193054 | 77 | 293 | 0.0 | 1.7 | 0.00 | 0.02 | 0.02 | 73 | 1011.6 |
| 20260506191555 | 77 | 0 | 0.9 | 2.6 | 0.00 | 0.02 | 0.02 | 73 | 1011.5 |
| 20260506190057 | 80 | 18 | 0.9 | 2.6 | 0.00 | 0.02 | 0.02 | 69 | 1011.7 |
| 20260506184557 | 78 | 309 | 0.0 | 5.2 | 0.00 | 0.02 | 0.02 | 71 | 1011.7 |
| 20260506183055 | 77 | 143 | 0.0 | 2.6 | 0.00 | 0.02 | 0.02 | 74 | 1011.8 |
| 20260506181553 | 75 | 131 | 0.9 | 3.5 | 0.00 | 0.02 | 0.02 | 77 | 1011.9 |
| 20260506174552 | 68 | 181 | 0.0 | 2.6 | 0.00 | 0.02 | 0.02 | 93 | 1011.7 |
| 20260506173111 | 67 | 103 | 0.9 | 3.5 | 0.02 | 0.02 | 0.02 | 93 | 1012.2 |
| 20260506171559 | 66 | 243 | 0.0 | 2.6 | 0.02 | 0.02 | 0.02 | 94 | 1012.1 |
| 20260506170058 | 65 | 0 | 0.0 | 6.1 | 0.02 | 0.02 | 0.02 | 93 | 1012.0 |
| 20260506164556 | 65 | 39 | 0.9 | 4.3 | 0.02 | 0.02 | 0.02 | 92 | 1012.3 |
| 20260506163103 | 65 | 50 | 1.7 | 6.1 | 0.00 | 0.00 | 0.00 | 86 | 1012.9 |
| 20260506161557 | 67 | 276 | 2.6 | 7.8 | 0.00 | 0.00 | 0.00 | 85 | 1013.5 |
| 20260506160107 | 68 | 343 | 1.7 | 6.1 | 0.00 | 0.00 | 0.00 | 84 | 1013.2 |
| 20260506154600 | 72 | 324 | 1.7 | 7.0 | 0.00 | 0.00 | 0.00 | 81 | 1012.7 |
| 20260506153055 | 77 | 0 | 0.0 | 0.9 | 0.00 | 0.00 | 0.00 | 86 | 1012.0 |
| 20260506151556 | 77 | 0 | 0.0 | 0.0 | 0.00 | 0.00 | 0.00 | 87 | 1011.5 |
| 20260506150056 | 77 | 0 | 0.0 | 1.7 | 0.00 | 0.00 | 0.00 | 86 | 1011.5 |
| 20260506144554 | 77 | 0 | 0.0 | 1.7 | 0.00 | 0.00 | 0.00 | 86 | 1010.9 |
| 20260506143052 | 77 | 112 | 0.0 | 2.6 | 0.00 | 0.00 | 0.00 | 86 | 1010.7 |
| 20260506141555 | 77 | 118 | 0.9 | 2.6 | 0.00 | 0.00 | 0.00 | 86 | 1010.2 |
| 20260506140054 | 77 | 0 | 0.0 | 0.9 | 0.00 | 0.00 | 0.00 | 87 | 1010.8 |
| 20260506134620 | 76 | 117 | 0.0 | 1.7 | 0.00 | 0.00 | 0.00 | 88 | 1010.2 |
| 20260506133051 | 75 | 0 | 0.0 | 2.6 | 0.00 | 0.00 | 0.00 | 89 | 1010.1 |
| 20260506131607 | 75 | 135 | 0.0 | 2.6 | 0.00 | 0.00 | 0.00 | 89 | 1010.1 |
| 20260506130055 | 75 | 0 | 0.0 | 2.6 | 0.00 | 0.00 | 0.00 | 89 | 1009.9 |
| 20260506124554 | 75 | 0 | 0.0 | 0.9 | 0.00 | 0.00 | 0.00 | 89 | 1009.8 |
| 20260506123054 | 75 | 0 | 0.0 | 1.7 | 0.00 | 0.00 | 0.00 | 89 | 1009.8 |
| 20260506121604 | 75 | 0 | 0.0 | 1.7 | 0.00 | 0.00 | 0.00 | 89 | 1009.9 |
| 20260506114556 | 75 | 0 | 0.0 | 2.6 | 0.00 | 0.00 | 0.00 | 88 | 1009.6 |
| 20260506113054 | 75 | 195 | 0.0 | 1.7 | 0.00 | 0.00 | 0.00 | 88 | 1009.7 |
| 20260506111608 | 75 | 0 | 0.0 | 0.9 | 0.00 | 0.00 | 0.00 | 88 | 1009.7 |
| 20260506110054 | 76 | 0 | 0.0 | 1.7 | 0.00 | 0.00 | 0.00 | 88 | 1009.6 |
| 20260506104553 | 76 | 0 | 0.0 | 3.5 | 0.00 | 0.00 | 0.00 | 88 | 1009.5 |
| 20260506103055 | 76 | 143 | 0.0 | 1.7 | 0.00 | 0.00 | 0.00 | 88 | 1009.3 |
| 20260506101549 | 76 | 205 | 0.0 | 3.5 | 0.00 | 0.00 | 0.00 | 88 | 1009.0 |
| 20260506100052 | 75 | 160 | 0.9 | 5.2 | 0.00 | 0.00 | 0.00 | 89 | 1009.0 |
| 20260506094551 | 75 | 195 | 1.7 | 4.3 | 0.00 | 0.00 | 0.00 | 89 | 1008.6 |
| 20260506093058 | 75 | 186 | 1.7 | 5.2 | 0.00 | 0.00 | 0.00 | 89 | 1008.5 |
| 20260506091553 | 75 | 207 | 0.9 | 7.8 | 0.00 | 0.00 | 0.00 | 89 | 1008.4 |
| 20260506090053 | 75 | 69 | 0.9 | 7.8 | 0.00 | 0.00 | 0.00 | 89 | 1008.2 |
| 20260506084601 | 75 | 143 | 1.7 | 3.5 | 0.00 | 0.00 | 0.00 | 89 | 1008.4 |
| 20260506083112 | 75 | 150 | 1.7 | 8.7 | 0.00 | 0.00 | 0.00 | 88 | 1008.3 |
| 20260506081553 | 75 | 122 | 1.7 | 5.2 | 0.00 | 0.00 | 0.00 | 88 | 1008.3 |
| 20260506073059 | 76 | 130 | 1.7 | 7.8 | 0.00 | 0.00 | 0.00 | 88 | 1008.7 |
| 20260506071557 | 76 | 141 | 1.7 | 5.2 | 0.00 | 0.00 | 0.00 | 88 | 1008.9 |
| 20260506070119 | 76 | 221 | 2.6 | 7.8 | 0.00 | 0.00 | 0.00 | 87 | 1008.9 |
| 20260506061553 | 76 | 202 | 1.7 | 8.7 | 0.00 | 0.00 | 0.00 | 87 | 1008.9 |
| 20260506044551 | 77 | 137 | 1.7 | 6.1 | 0.00 | 0.00 | 0.00 | 87 | 1009.0 |
| 20260506043051 | 77 | 146 | 1.7 | 7.0 | 0.00 | 0.00 | 0.00 | 86 | 1009.1 |
| 20260506041554 | 77 | 139 | 0.9 | 7.0 | 0.00 | 0.00 | 0.00 | 86 | 1009.0 |
| 20260506040056 | 77 | 158 | 1.7 | 4.3 | 0.00 | 0.00 | 0.00 | 86 | 1008.7 |
| 20260506034600 | 77 | 214 | 0.9 | 5.2 | 0.00 | 0.00 | 0.00 | 85 | 1008.6 |
| 20260506033052 | 78 | 161 | 1.7 | 7.0 | 0.00 | 0.00 | 0.00 | 84 | 1008.5 |
| 20260506031600 | 78 | 138 | 0.0 | 5.2 | 0.00 | 0.00 | 0.00 | 84 | 1008.2 |
| 20260506030058 | 78 | 0 | 0.0 | 3.5 | 0.00 | 0.00 | 0.00 | 83 | 1008.0 |
| 20260506024601 | 79 | 124 | 1.7 | 5.2 | 0.00 | 0.00 | 0.00 | 82 | 1007.9 |
| 20260506023052 | 79 | 133 | 1.7 | 6.1 | 0.00 | 0.00 | 0.00 | 81 | 1007.5 |
| 20260506021550 | 80 | 172 | 1.7 | 7.0 | 0.00 | 0.00 | 0.00 | 79 | 1007.2 |
| 20260506020107 | 80 | 141 | 1.7 | 4.3 | 0.00 | 0.00 | 0.00 | 78 | 1007.0 |
| 20260506014610 | 81 | 174 | 0.9 | 4.3 | 0.00 | 0.00 | 0.00 | 78 | 1006.8 |
| 20260506013052 | 81 | 103 | 1.7 | 4.3 | 0.00 | 0.00 | 0.00 | 77 | 1006.9 |
| 20260506011617 | 82 | 136 | 0.0 | 3.5 | 0.00 | 0.00 | 0.00 | 76 | 1006.9 |
| 20260506010053 | 82 | 155 | 0.0 | 1.7 | 0.00 | 0.00 | 0.00 | 75 | 1006.9 |
| 20260506004607 | 82 | 0 | 0.0 | 1.7 | 0.00 | 0.00 | 0.00 | 75 | 1006.8 |
| 20260506003055 | 83 | 118 | 0.0 | 3.5 | 0.00 | 0.00 | 0.00 | 74 | 1006.8 |
| 20260506001602 | 83 | 0 | 0.0 | 5.2 | 0.00 | 0.00 | 0.00 | 73 | 1006.7 |
| 20260506000120 | 83 | 205 | 1.7 | 4.3 | 0.00 | 0.00 | 0.00 | 72 | 1006.5 |
| 20260505234556 | 83 | 168 | 1.7 | 4.3 | 0.00 | 0.00 | 0.00 | 73 | 1006.4 |
| 20260505233059 | 84 | 184 | 1.7 | 8.7 | 0.00 | 0.00 | 0.00 | 72 | 1006.3 |
| 20260505231612 | 84 | 106 | 2.6 | 7.0 | 0.00 | 0.00 | 0.00 | 71 | 1006.2 |
| 20260505230105 | 84 | 194 | 1.7 | 6.1 | 0.00 | 0.00 | 0.00 | 71 | 1006.0 |
| 20260505224557 | 84 | 58 | 1.7 | 5.2 | 0.00 | 0.00 | 0.00 | 70 | 1006.0 |
| 20260505223049 | 84 | 215 | 2.6 | 8.7 | 0.00 | 0.00 | 0.00 | 69 | 1005.9 |
| 20260505221559 | 85 | 167 | 1.7 | 7.8 | 0.00 | 0.00 | 0.00 | 69 | 1006.0 |
| 20260505220053 | 85 | 181 | 2.6 | 9.6 | 0.00 | 0.00 | 0.00 | 69 | 1006.1 |